Showing default

EUTE 172B, 42741

Orbit data source: Space-Track

EUTE 172B, 42741 is a payload satellite owned by EutelsatSA (FR) in GEO that was launched on Thu, 01 Jun 2017 UTC via an ARIANE 5ECA launch vehicle from the French Guiana (FRGUI). Payload-class satellites include a variety of spacecraft equipped with specific instruments for various scientific and technological missions. These include communications satellites like Starlink; space stations such as the ISS; scientific satellites like the Hubble; Earth observation satellites from companies like Planet Labs, Umbra, and HawkEye 360; GPS; miniature CubeSats for education and research; and military/defense satellites.

Not visible in the next 10 days
Identifier
42741, 2017-029B
Orbit
GEO
Country
Flag of UnknownUnknown / EUTE
Related business
Manufacturer
Airbus/Toulouse
Mission
Operational Commercial Communications
Bus & Motor
EUROSTAR 3000E, EOR
Mass
3,551 kg wet, 2,951 kg dry
Launch date (UTC)
2017-06-01 (8 years ago)
Launch vehicle
ARIANE 5ECA
Launch site
French Guiana (FRGUI)
Object type
Payload
Rocket body
Debris
Shape & HBR
Box + 2 Pan, 19.6 m
Radar Cross Section
49.877 m², Large (>1 m²)

Expand to show TLE details & history
Last TLE update: 1 day ago

TLE from 1 day ago
0 EUTE 172B
1 42741U 17029B   25315.20534538 -.00000010  00000-0  00000-0 0  9995
2 42741   0.0237 172.9538 0000146 113.8990   9.6965  1.00270500 31542
Epoch: 2025-11-11T04:55Z
TLE epoch observation values (Epoch: 2025-11-11T04:55:41.840Z)
Latitude
0.01759°
Longitude
172.0105°
Altitude
35,785.838 km
Speed
3.075 km/s
True Right ascension
19h 46m 07s
True Declination
0° 01' 03"
Sunlit
Object was in daylight at epoch
Visualization orbit readout
Latitude
Unknown
Longitude
Unknown
Altitude
Unknown
Speed
Unknown
Apparent Right ascension
Unknown
Apparent Declination
Unknown
Sunlit
N/A
Visualization observer readout
Local Sidereal Time
00:57:31
Azimuth
Unknown
Elevation
Unknown
Doppler factor
Unknown
Orbital elements
Apogee altitude
35,788.641 km
Perigee altitude
35,787.41 km
Semi-major axis
42,166.163 km
Eccentricity
0.00001
Inclination
0.0237°
RAAN
172.9538°
Arg. of periapsis
113.899°
True anomaly
9.69678°
Mean anomaly
9.6965°
Eccentric anomaly
9.69664°
Mean motion
0.25067 °/min
Orbital period
1,436.17 mins
BSTAR
0
Loading maneuver chart data...
Computing Atmospheric mass density...
Loading historical data...
Loading historical data...
Loading historical data...
Loading historical data...
Loading historical data...
Loading historical data...
Loading historical data...
Other satellites on launch #29 in the year 2017 (2017-06-01 UTC)

Documentation

Showing up to 5 results
|